Location: Nitra
(0.0000°N, 18.0833°E)
Time: 14:30:12
(UTC+02:00)

S-56A Canister/Altair - Visible Passes

Search period start: 30 March 2023 00:00
Search period end: 09 April 2023 00:00
Orbit: 639 x 2493 km, 38.9° (Epoch: 29 March)

Date Brightness Start Highest point End Pass type
(mag) Time Alt. Az. Time Alt. Az. Time Alt. Az.
30 Mar 10.1 04:42:27 25° SSW 04:42:27 25° SSW 04:46:43 10° SSE visible
31 Mar 10.4 04:11:46 21° S 04:11:46 21° S 04:14:27 10° SSE visible
31 Mar 11.6 23:08:03 10° NNW 23:09:44 13° N 23:09:44 13° N visible
01 Apr 10.9 03:41:00 14° SSE 03:41:00 14° SSE 03:42:02 10° SSE visible
01 Apr 11.4 22:35:06 10° N 22:38:24 15° N 22:38:24 15° N visible
02 Apr 11.4 22:02:24 10° N 22:07:04 15° NNE 22:07:04 15° NNE visible
03 Apr 10.9 04:36:42 10° S 04:36:42 10° S 04:36:43 10° S visible
03 Apr 11.3 21:30:04 10° N 21:35:46 14° NNE 21:35:46 14° NNE visible
03 Apr 11.5 23:31:22 10° NNW 23:33:09 15° NNW 23:33:09 15° NNW visible
04 Apr 11.4 20:58:33 10° NNE 21:02:24 11° NNE 21:04:29 11° NE visible
04 Apr 11.3 22:58:07 10° NNW 23:01:53 20° NNW 23:01:53 20° NNW visible
05 Apr 11.1 22:25:01 10° NNW 22:30:40 24° N 22:30:40 24° N visible
06 Apr 10.9 21:52:03 10° NNW 21:59:28 26° NNE 21:59:28 26° NNE visible
06 Apr 11.6 23:55:57 10° NW 23:56:53 13° NW 23:56:53 13° NW visible
07 Apr 10.8 21:19:15 10° NNW 21:28:20 25° NNE 21:28:20 25° NNE visible
07 Apr 11.3 23:22:28 10° NW 23:25:45 21° NW 23:25:45 21° NW visible
08 Apr 10.9 20:46:39 10° N 20:56:01 22° NE 20:57:14 22° NE visible
08 Apr 10.9 22:49:06 10° NW 22:54:40 30° NNW 22:54:40 30° NNW visible
